Weather History for Truckee-Tahoe, CA

Change the Weather History Date:

Friday, March 22, 2013

  Actual Average Record
Temperature  
Mean Temperature 30 °F -  
Max Temperature 46 °F 49 °F 68 °F (2004)
Min Temperature 14 °F 24 °F 0 °F (1952)
Degree Days  
Heating Degree Days 35    
Moisture  
Dew Point 11 °F    
Average Humidity 60    
Maximum Humidity 93    
Minimum Humidity 12    
Precipitation  
Precipitation 0.00 in - - ()
Sea Level Pressure  
Sea Level Pressure 30.08 in    
Wind  
Wind Speed 2 mph (North)    
Max Wind Speed 12 mph    
Max Gust Speed 18 mph    
Visibility 10 miles    
Events      
Averages and records for this station are not official NWS values.
T = Trace of Precipitation, MM = Missing Value Source: NWS Daily Summary

Daily Weather History Graph

Daily Weather History Graph

Search for Another Location

Airport:

Trip Planner

Search our weather history database for the weather conditions in past years. The results will help you decide how hot, cold, wet, or windy it might be!

Date:

Astronomy

Mar. 22, 2013 Rise Set
Actual Time 7:00 AM PDT 7:14 PM PDT
Civil Twilight 6:33 AM PDT 7:41 PM PDT
Nautical Twilight 6:02 AM PDT 8:13 PM PDT
Astronomical Twilight 5:30 AM PDT 8:45 PM PDT
Moon 2:48 PM PDT (3/22) 4:02 AM PDT (3/22)
Length of Visible Light 13h 08m
Length of Day
12h 14m
Waxing Gibbous, 78% of the Moon is Illuminated
Mar 22
Waxing Gibbous
Mar 27
Full
Apr 2
Last Quarter
Apr 10
New
Apr 18
First Quarter

Hourly Weather History & Observations

Time (PDT) Temp. Windchill Dew Point Humidity Pressure Visibility Wind Dir Wind Speed Gust Speed Precip Events Conditions
12:15 AM 26.6 °F - 21.2 °F 80% 30.10 in 10.0 mi Calm Calm - N/A   Clear
12:35 AM 24.8 °F - 23.0 °F 93% 30.10 in 10.0 mi Calm Calm - N/A   Clear
12:55 AM 24.8 °F 20.5 °F 23.0 °F 93% 30.10 in 10.0 mi SSW 3.5 mph - N/A   Clear
1:15 AM 24.8 °F - 21.2 °F 86% 30.09 in 10.0 mi Calm Calm - N/A   Clear
1:35 AM 24.8 °F - 19.4 °F 80% 30.09 in 10.0 mi Calm Calm - N/A   Clear
1:55 AM 23.0 °F - 19.4 °F 86% 30.09 in 10.0 mi Calm Calm - N/A   Clear
2:15 AM 23.0 °F - 19.4 °F 86% 30.09 in 10.0 mi Calm Calm - N/A   Clear
2:35 AM 21.2 °F - 17.6 °F 86% 30.09 in 10.0 mi Calm Calm - N/A   Clear
2:55 AM 23.0 °F - 17.6 °F 80% 30.10 in 10.0 mi Calm Calm - N/A   Clear
3:15 AM 21.2 °F 16.4 °F 17.6 °F 86% 30.09 in 10.0 mi South 3.5 mph - N/A   Clear
3:35 AM 19.4 °F 14.3 °F 17.6 °F 93% 30.08 in 10.0 mi SSW 3.5 mph - N/A   Clear
3:55 AM 21.2 °F 16.4 °F 17.6 °F 86% 30.08 in 10.0 mi West 3.5 mph - N/A   Clear
4:15 AM 19.4 °F 12.8 °F 17.6 °F 93% 30.07 in 10.0 mi North 4.6 mph - N/A   Clear
4:35 AM 21.2 °F - 17.6 °F 86% 30.06 in 10.0 mi Calm Calm - N/A   Clear
4:55 AM 17.6 °F - 15.8 °F 93% 30.07 in 10.0 mi Calm Calm - N/A   Clear
5:15 AM 17.6 °F - 15.8 °F 93% 30.07 in 10.0 mi Calm Calm - N/A   Clear
5:35 AM 17.6 °F - 15.8 °F 93% 30.07 in 10.0 mi Calm Calm - N/A   Clear
5:55 AM 17.6 °F 12.3 °F 14.0 °F 86% 30.08 in 10.0 mi ENE 3.5 mph - N/A   Clear
6:15 AM 15.8 °F 8.6 °F 14.0 °F 93% 30.08 in 10.0 mi South 4.6 mph - N/A   Clear
6:35 AM 14.0 °F 6.5 °F 12.2 °F 93% 30.08 in 10.0 mi SSW 4.6 mph - N/A   Clear
6:50 AM 14.0 °F - 12.2 °F 93% 30.08 in 10.0 mi Calm Calm - N/A   Clear
7:45 AM 15.8 °F - 14.0 °F 93% 30.09 in 10.0 mi Calm Calm - N/A   Clear
8:55 AM 24.8 °F - 17.6 °F 74% 30.08 in 10.0 mi Calm Calm - N/A   Clear
10:50 AM 35.6 °F - -0.4 °F 22% 30.07 in 10.0 mi Calm Calm - N/A   Clear
11:50 AM 39.2 °F 33.6 °F -2.2 °F 17% 30.06 in 10.0 mi NNE 8.1 mph - N/A   Clear
12:50 PM 39.2 °F 35.9 °F -2.2 °F 17% 30.06 in 10.0 mi NW 4.6 mph - N/A   Clear
1:50 PM 44.6 °F 41.4 °F 1.4 °F 17% 30.04 in 10.0 mi NE 5.8 mph - N/A   Clear
2:50 PM 46.4 °F 42.9 °F -4.0 °F 12% 30.03 in 10.0 mi NNW 6.9 mph 18.4 mph N/A   Clear
3:50 PM 46.4 °F 43.5 °F -0.4 °F 14% 30.03 in 10.0 mi NNE 5.8 mph - N/A   Clear
5:55 PM 42.8 °F 36.6 °F -4.0 °F 14% 30.06 in 10.0 mi North 11.5 mph - N/A   Clear
6:15 PM 41.0 °F 35.8 °F -2.2 °F 16% 30.05 in 10.0 mi North 8.1 mph - N/A   Clear
6:35 PM 41.0 °F 35.8 °F -0.4 °F 18% 30.06 in 10.0 mi NNE 8.1 mph - N/A   Clear
6:55 PM 39.2 °F 34.2 °F 1.4 °F 21% 30.06 in 10.0 mi NNE 6.9 mph - N/A   Clear
7:15 PM 37.4 °F 32.8 °F 1.4 °F 22% 30.06 in 10.0 mi NNE 5.8 mph - N/A   Clear
7:35 PM 37.4 °F 33.8 °F -0.4 °F 20% 30.08 in 10.0 mi North 4.6 mph - N/A   Clear
7:55 PM 37.4 °F 32.8 °F 1.4 °F 22% 30.08 in 10.0 mi North 5.8 mph - N/A   Clear
8:15 PM 32.0 °F 28.7 °F 6.8 °F 35% 30.09 in 10.0 mi SSE 3.5 mph - N/A   Clear
8:35 PM 28.4 °F 24.6 °F 10.4 °F 47% 30.09 in 10.0 mi SW 3.5 mph - N/A   Clear
8:55 PM 28.4 °F - 8.6 °F 43% 30.10 in 10.0 mi Calm Calm - N/A   Clear
9:15 PM 26.6 °F 21.2 °F 10.4 °F 51% 30.11 in 10.0 mi SSW 4.6 mph - N/A   Clear
9:35 PM 26.6 °F - 10.4 °F 51% 30.11 in 10.0 mi Calm Calm - N/A   Clear
9:55 PM 24.8 °F - 12.2 °F 59% 30.12 in 10.0 mi Calm Calm - N/A   Clear
10:15 PM 26.6 °F - 10.4 °F 51% 30.12 in 10.0 mi Calm Calm - N/A   Clear
10:35 PM 26.6 °F - 10.4 °F 51% 30.12 in 10.0 mi Calm Calm - N/A   Clear
10:55 PM 26.6 °F - 8.6 °F 47% 30.12 in 10.0 mi Calm Calm - N/A   Clear
11:15 PM 21.2 °F - 12.2 °F 68% 30.13 in 10.0 mi Calm Calm - N/A   Clear
11:35 PM 24.8 °F - 10.4 °F 54% 30.13 in 10.0 mi Calm Calm - N/A   Clear
11:55 PM 24.8 °F - 10.4 °F 54% 30.14 in 10.0 mi Calm Calm - N/A   Clear